Temp
59 59 58 58 58 58 58 58 58 58 57 57 57 57 57 57 57 58 58 58 58 59 59 60 60 60 51 41 43 57 60 60 58 55 53 52 49 48 45 46 47 44 46 48 50 48 49
59 58 58 58 58 58 58 58 58 58 57 57 57 57 57 57 57 58 58 57 58 58 58 58 60 60 44 35 54 56 54 54 56 53 51 51 50 51 48 46 46 48 47 47 49 48 49
59 58 58 58 58 58 58 58 58 58 57 57 57 57 56 56 57 57 57 57 57 57 58 58 59 55 45 42 53 56 55 52 53 53 50 53 53 50 48 45 50 48 43 44 46 48 48
57 57 57 57 57 57 57 57 57 57 57 57 57 56 56 56 56 56 56 56 57 57 57 57 59 51 41 53 53 51 53 51 53 54 53 55 54 50 48 48 47 43 42 37 43 45 47
57 57 56 57 57 57 56 56 56 56 56 56 56 56 56 56 56 56 56 56 56 56 57 57 49 45 40 53 46 51 51 47 51 53 54 59 52 47 45 41 37 37 34 34 41 44 43
56 56 56 56 56 55 56 56 56 56 55 55 55 55 55 56 56 55 56 55 55 55 51 53 50 40 43 41 47 50 49 49 49 48 48 48 43 38 36 36 32 33 35 37 36 41 39
56 56 56 56 55 55 55 55 55 55 55 55 54 54 54 55 55 55 50 42 36 35 42 35 36 39 43 47 50 46 49 46 46 44 37 41 35 32 37 41 41 39 37 36 37 42 40
56 55 55 55 54 54 54 54 54 55 55 54 53 54 54 54 54 55 44 36 37 37 29 40 41 41 45 48 40 45 50 41 39 35 42 36 32 41 41 40 41 38 36 36 40 41 40
55 54 55 53 54 54 54 54 53 54 54 54 53 53 53 53 53 45 39 38 45 45 29 33 40 39 41 44 37 39 45 44 38 35 39 36 37 43 41 37 38 39 39 35 38 39 39
54 54 53 54 53 53 53 53 53 53 53 53 53 53 52 52 43 38 36 42 43 41 12 27 32 37 41 41 35 47 48 44 40 33 38 38 44 39 39 38 40 34 40 41 39 37 32
53 53 52 53 53 53 53 52 53 52 53 52 53 53 53 52 41 37 40 43 41 35 -4 30 36 45 40 36 38 39 49 43 35 36 36 32 34 36 34 39 42 37 41 41 39 35 33
53 52 52 52 53 52 52 53 53 53 53 52 52 52 51 43 38 41 42 41 34 8 -4 24 34 31 28 31 33 40 38 44 44 39 36 36 38 41 41 41 44 40 37 36 34 34 22
52 52 51 52 52 51 52 52 52 53 52 52 52 52 48 43 36 43 42 32 10 -1 22 20 26 32 30 30 30 33 32 32 31 26 28 34 34 36 41 36 40 38 36 20 22 21 24
53 52 52 51 51 51 51 51 51 52 51 51 51 50 45 43 41 42 36 23 8 9 17 30 28 29 24 29 27 27 30 28 36 34 30 26 23 34 37 38 34 36 39 26 16 14 23
52 51 51 51 51 51 50 51 51 50 51 50 49 37 35 39 41 39 30 15 12 16 26 24 24 21 21 27 26 24 26 28 33 35 27 26 27 35 37 39 42 34 33 39 25 14 21
51 50 51 51 51 51 50 50 50 50 50 50 38 37 36 40 41 37 25 20 12 26 27 25 16 19 17 22 21 23 20 32 32 38 40 32 24 33 36 39 39 40 44 32 28 18 16
51 50 51 51 51 51 50 51 50 50 50 49 37 29 33 39 41 30 19 9 20 30 30 19 16 19 21 20 22 20 23 27 31 35 40 33 30 27 33 32 34 32 35 34 35 30 24
50 50 50 51 51 50 50 50 50 50 49 41 33 18 33 36 21 5 5 13 30 29 30 25 22 22 21 23 20 20 22 27 32 32 32 37 30 21 28 35 35 38 37 37 33 24 22
51 49 50 50 50 50 49 49 49 50 49 35 29 23 36 34 14 6 9 13 21 24 27 22 19 23 26 24 19 24 27 31 32 31 29 36 29 23 18 31 33 35 36 42 36 34 24
50 49 49 49 49 50 50 49 48 48 49 37 30 19 25 31 23 17 7 15 11 23 23 27 26 27 24 21 25 22 26 29 32 31 34 32 29 27 24 29 32 25 34 39 37 28 33
50 50 48 49 48 50 49 49 49 48 48 37 30 20 23 19 15 17 22 15 15 15 24 23 20 26 23 19 21 23 27 27 30 32 30 28 19 17 26 30 34 31 29 30 33 37 30
49 49 48 48 48 48 49 49 48 47 47 34 27 20 22 13 19 19 23 20 19 21 21 18 21 27 26 21 23 22 25 27 25 28 28 29 20 22 20 24 27 28 28 30 29 36 35
49 49 48 48 48 48 48 48 48 47 46 32 28 29 28 27 10 18 18 21 24 27 27 28 26 25 24 27 30 29 31 30 29 27 26 25 22 19 15 21 23 21 26 27 31 36 38
48 48 48 48 47 47 48 48 48 47 46 36 33 32 26 20 23 20 24 26 25 27 25 28 28 23 31 36 35 33 28 28 29 28 31 23 22 21 14 19 12 22 32 32 28 30 36
48 48 48 47 47 47 46 47 47 47 47 38 37 32 28 19 25 26 24 24 27 27 27 27 31 32 35 31 21 12 10 14 15 25 26 28 22 14 12 13 22 27 30 29 28 29 37
48 48 47 47 46 47 46 46 47 47 47 40 37 38 32 24 22 29 25 26 20 21 17 26 32 32 32 26 15 4 -1 2 7 17 28 28 27 16 8 10 8 26 31 35 35 23 36
48 47 46 47 46 46 45 46 46 47 46 41 37 40 33 26 29 30 24 24 26 24 19 19 25 24 30 20 10 0 3 10 3 6 11 15 12 6 5 6 17 30 33 34 20 25 35
47 47 45 46 46 46 46 46 46 46 46 42 37 41 34 29 32 31 33 29 27 28 20 20 21 18 16 16 15 5 -3 7 5 11 12 14 11 9 6 -1 5 31 32 29 35 37 38
46 46 45 46 46 46 46 46 45 45 46 44 34 40 40 32 30 33 36 37 35 36 31 27 25 22 26 19 15 12 4 3 2 1 18 14 19 15 19 20 31 32 33 37 39 37 37
MSLP
1027.09 1026.88 1026.80 1026.71 1026.53 1026.47 1026.28 1026.06 1025.77 1025.48 1025.47 1025.25 1024.64 1024.39 1024.14 1023.74 1023.39 1023.04 1022.78 1022.30 1021.83 1021.31 1021.05 1020.63 1020.39 1020.03 1020.01 1020.12 1017.93 1016.27 1015.95 1015.61 1015.26 1015.40 1015.57 1015.44 1015.79 1015.64 1015.59 1015.42 1015.24 1015.17 1014.48 1014.08 1013.78 1013.76 1013.70
1027.27 1027.11 1027.07 1027.03 1026.77 1026.57 1026.37 1026.17 1026.02 1025.56 1025.20 1025.09 1024.87 1024.51 1023.96 1023.64 1023.27 1022.83 1022.72 1022.30 1021.81 1021.24 1020.77 1020.56 1020.08 1019.96 1020.23 1019.60 1017.04 1016.36 1016.23 1016.23 1015.66 1015.55 1015.57 1015.58 1015.18 1015.22 1015.23 1015.10 1015.04 1014.20 1014.23 1013.99 1013.73 1013.74 1013.70
1027.44 1027.34 1027.02 1026.99 1026.91 1026.58 1026.33 1026.21 1025.85 1025.47 1025.12 1024.97 1024.80 1024.51 1024.08 1023.74 1023.38 1022.99 1022.56 1022.22 1021.67 1021.17 1020.68 1020.33 1019.97 1019.62 1019.18 1018.01 1016.76 1016.31 1016.42 1016.47 1016.27 1016.20 1015.52 1015.19 1015.01 1015.07 1014.90 1014.91 1014.30 1014.24 1014.40 1014.15 1013.81 1013.66 1013.63
1027.83 1027.61 1027.30 1027.02 1026.78 1026.59 1026.35 1026.09 1025.69 1025.32 1025.08 1024.83 1024.56 1024.26 1023.85 1023.47 1023.23 1022.92 1022.41 1022.10 1021.34 1020.84 1020.34 1020.02 1019.68 1019.52 1017.49 1016.56 1016.28 1016.33 1016.30 1016.09 1015.67 1015.66 1015.61 1014.72 1014.72 1014.89 1014.87 1014.67 1014.58 1014.59 1014.64 1014.49 1013.58 1013.63 1013.31
1027.80 1027.60 1027.46 1026.99 1026.85 1026.58 1026.49 1026.09 1025.73 1025.41 1025.17 1024.60 1024.19 1023.93 1023.53 1023.23 1023.13 1022.75 1022.07 1021.64 1020.94 1019.92 1019.50 1019.32 1019.56 1019.55 1016.84 1016.35 1016.37 1015.55 1015.79 1015.89 1015.22 1014.98 1014.97 1014.71 1014.61 1014.72 1014.84 1015.08 1015.30 1014.97 1014.71 1014.66 1014.16 1013.42 1013.37
1027.83 1027.60 1027.34 1027.10 1026.86 1026.58 1026.30 1025.88 1025.53 1025.29 1024.83 1024.11 1023.82 1023.66 1023.40 1023.09 1022.81 1022.34 1021.76 1021.37 1020.35 1019.03 1018.90 1018.74 1018.96 1019.99 1017.45 1016.36 1015.84 1015.26 1015.11 1015.43 1015.23 1014.82 1015.07 1014.93 1014.85 1014.69 1014.77 1014.84 1014.10 1014.88 1014.97 1014.56 1014.06 1013.37 1013.52
1027.63 1027.51 1027.27 1026.70 1026.81 1026.34 1026.04 1025.70 1025.43 1024.77 1024.08 1023.85 1023.87 1023.57 1023.29 1023.00 1022.64 1022.21 1021.92 1021.52 1021.33 1020.56 1020.26 1020.76 1020.07 1018.70 1016.78 1016.35 1015.66 1015.09 1015.11 1015.46 1015.61 1015.02 1014.66 1014.77 1014.85 1013.15 1013.18 1013.35 1013.56 1013.85 1013.98 1013.79 1013.49 1013.01 1013.22
1027.73 1027.34 1027.12 1026.91 1026.57 1026.24 1025.93 1025.43 1024.99 1024.52 1024.19 1023.78 1023.71 1023.36 1023.08 1022.75 1022.57 1022.32 1022.56 1023.08 1023.51 1023.93 1020.62 1020.05 1019.10 1018.04 1017.30 1017.49 1015.94 1015.34 1015.36 1015.70 1015.51 1014.68 1014.67 1014.70 1012.25 1013.01 1013.24 1013.44 1013.46 1013.57 1013.62 1013.51 1013.21 1012.92 1013.20
1027.85 1027.35 1027.10 1026.73 1026.18 1025.93 1025.64 1025.08 1024.84 1024.65 1024.18 1023.70 1023.51 1023.20 1022.94 1022.59 1022.43 1022.63 1022.90 1023.27 1023.40 1023.10 1022.34 1018.68 1017.64 1015.90 1015.38 1015.53 1014.09 1014.53 1015.46 1014.90 1014.80 1014.52 1013.56 1012.83 1011.56 1012.69 1012.89 1012.91 1013.14 1012.72 1012.62 1013.19 1013.20 1013.05 1013.08
1027.63 1027.25 1027.06 1026.31 1025.91 1025.69 1025.21 1025.05 1024.83 1024.43 1023.98 1023.49 1023.19 1022.85 1022.75 1022.52 1022.73 1022.84 1023.00 1023.21 1023.14 1023.13 1022.45 1018.22 1016.52 1014.68 1014.51 1014.79 1013.54 1013.65 1013.79 1014.44 1013.90 1013.10 1013.82 1012.85 1011.90 1011.93 1012.09 1011.73 1011.95 1012.19 1012.28 1012.79 1013.14 1013.39 1013.55
1027.43 1027.25 1026.92 1026.44 1025.92 1025.33 1025.09 1024.90 1024.48 1024.24 1023.48 1023.26 1022.88 1022.53 1022.28 1022.19 1022.94 1023.06 1022.94 1022.80 1022.83 1023.29 1022.91 1017.86 1016.17 1015.45 1015.22 1014.58 1013.23 1012.37 1011.58 1012.69 1011.76 1012.34 1012.69 1010.30 1010.82 1011.39 1011.66 1010.33 1011.69 1011.48 1011.84 1012.61 1013.10 1013.48 1013.68
1027.28 1027.06 1026.79 1026.39 1025.63 1025.14 1024.77 1024.38 1024.04 1023.59 1023.17 1022.88 1022.56 1022.23 1022.08 1022.20 1022.67 1022.42 1022.39 1022.51 1023.25 1024.43 1022.61 1018.50 1016.57 1016.56 1017.05 1016.23 1015.13 1012.81 1012.28 1012.01 1011.48 1011.98 1011.25 1010.83 1010.61 1010.27 1009.45 1010.55 1011.06 1011.44 1012.44 1013.29 1013.77 1014.25 1014.07
1027.08 1026.75 1026.55 1026.02 1025.42 1024.92 1024.36 1024.13 1023.69 1023.28 1022.87 1022.54 1022.08 1021.84 1021.88 1022.19 1022.36 1022.37 1022.48 1023.14 1024.44 1024.46 1021.89 1019.29 1017.45 1017.02 1016.95 1015.86 1014.54 1013.44 1012.91 1011.98 1010.87 1010.67 1010.15 1010.52 1010.54 1009.91 1009.49 1010.32 1010.96 1010.79 1011.62 1013.48 1014.59 1014.77 1012.41
1026.65 1026.42 1026.16 1025.66 1025.15 1024.62 1024.27 1023.79 1023.51 1023.03 1022.74 1022.26 1021.84 1021.53 1021.54 1021.53 1021.65 1021.96 1023.18 1023.74 1024.00 1023.02 1021.43 1019.11 1018.57 1017.97 1017.80 1016.43 1015.69 1014.33 1012.54 1010.97 1010.72 1010.01 1009.44 1009.67 1009.76 1009.05 1008.55 1008.24 1008.91 1009.75 1009.96 1010.67 1012.06 1012.76 1012.48
1026.43 1026.21 1025.71 1025.27 1024.73 1024.37 1024.03 1023.63 1023.19 1022.87 1022.44 1021.98 1021.54 1021.69 1021.57 1021.06 1021.25 1021.92 1023.10 1023.38 1023.13 1022.02 1020.76 1020.18 1019.12 1018.37 1016.95 1016.86 1017.29 1015.70 1012.56 1011.32 1009.98 1009.59 1008.98 1008.88 1008.40 1007.82 1007.66 1007.59 1007.81 1009.26 1008.88 1008.70 1010.68 1012.31 1012.05
1026.13 1025.84 1025.34 1024.79 1024.19 1023.95 1023.66 1023.31 1022.87 1022.64 1022.17 1021.81 1022.02 1021.86 1021.44 1020.89 1021.08 1021.84 1022.72 1022.63 1022.51 1021.23 1020.58 1020.28 1019.91 1019.04 1017.27 1016.66 1016.74 1015.88 1014.64 1010.66 1010.03 1009.03 1008.84 1008.44 1008.02 1007.57 1007.82 1007.59 1007.35 1006.73 1006.91 1008.65 1009.69 1010.70 1011.13
1025.60 1025.45 1024.93 1024.34 1023.84 1023.47 1023.24 1022.83 1022.65 1022.27 1021.92 1021.71 1022.03 1022.02 1021.11 1020.81 1021.16 1022.00 1022.65 1022.65 1021.80 1020.42 1020.30 1020.39 1019.25 1018.77 1018.15 1017.22 1016.94 1016.20 1014.58 1012.14 1010.48 1008.24 1008.27 1008.64 1007.81 1007.96 1007.63 1006.80 1005.35 1006.43 1006.55 1006.75 1007.36 1008.47 1008.49
1025.25 1024.96 1024.58 1023.95 1023.50 1023.30 1022.88 1022.53 1022.04 1021.76 1021.70 1021.84 1022.22 1022.19 1021.34 1021.15 1022.18 1022.72 1022.89 1022.26 1021.27 1020.01 1019.83 1019.67 1018.66 1017.91 1017.97 1017.46 1016.29 1015.35 1013.64 1011.97 1010.54 1009.21 1008.22 1007.57 1007.52 1007.38 1007.23 1006.32 1005.98 1005.66 1005.51 1005.95 1006.57 1007.56 1007.27
1024.71 1024.72 1024.24 1023.73 1023.14 1022.77 1022.59 1022.17 1021.74 1021.45 1021.41 1022.05 1021.79 1021.78 1021.39 1021.52 1022.40 1023.33 1023.05 1022.38 1021.45 1020.26 1019.30 1019.10 1018.35 1016.96 1017.11 1016.65 1016.10 1014.18 1012.78 1011.44 1010.35 1009.30 1009.19 1007.85 1007.55 1007.44 1007.69 1007.14 1006.12 1005.44 1004.70 1004.63 1004.91 1005.44 1005.90
1024.22 1024.19 1023.88 1023.32 1022.99 1022.31 1021.97 1021.72 1021.43 1021.08 1020.91 1021.46 1021.76 1021.78 1021.88 1021.20 1021.81 1022.40 1022.85 1022.23 1021.18 1019.64 1018.89 1018.51 1017.69 1017.10 1015.91 1015.73 1015.22 1013.78 1012.62 1011.98 1010.70 1009.76 1008.99 1008.59 1007.49 1006.70 1006.14 1005.24 1005.98 1005.82 1005.29 1004.99 1004.93 1005.32 1004.35
1023.74 1023.38 1023.22 1022.81 1022.46 1021.85 1021.39 1021.02 1020.85 1020.64 1020.39 1020.96 1021.09 1021.15 1020.99 1021.56 1021.47 1021.74 1021.80 1021.19 1020.10 1019.50 1018.52 1017.87 1017.17 1016.64 1015.87 1014.41 1013.72 1012.63 1012.32 1011.81 1011.22 1010.65 1009.55 1009.77 1009.12 1008.43 1007.73 1006.89 1006.06 1005.79 1005.69 1005.51 1005.44 1004.32 1004.98
1023.06 1022.70 1022.54 1022.20 1021.86 1021.35 1020.88 1020.44 1020.23 1020.18 1019.94 1020.30 1020.44 1021.05 1021.29 1020.50 1020.43 1020.62 1020.32 1019.57 1019.43 1017.75 1018.15 1016.89 1016.77 1015.80 1015.40 1014.89 1014.45 1013.24 1012.50 1011.74 1011.50 1011.30 1010.76 1010.37 1010.29 1009.74 1009.44 1008.45 1007.86 1006.85 1006.66 1005.96 1005.32 1004.87 1004.76
1022.43 1022.00 1021.77 1021.55 1021.08 1020.77 1020.23 1019.85 1019.71 1019.57 1019.48 1019.39 1019.32 1019.13 1019.35 1018.30 1019.63 1019.52 1018.37 1017.93 1017.36 1017.30 1016.55 1015.80 1015.64 1015.32 1014.62 1014.34 1013.93 1013.22 1012.80 1012.25 1011.67 1011.26 1011.56 1011.21 1010.90 1010.85 1011.00 1010.14 1008.70 1008.19 1007.36 1006.91 1005.79 1005.02 1004.44
1021.70 1021.38 1021.03 1020.79 1020.51 1020.08 1019.54 1019.07 1018.86 1018.77 1018.65 1018.82 1018.63 1018.77 1018.25 1017.12 1017.69 1017.58 1017.02 1016.70 1016.12 1016.10 1015.84 1014.88 1014.93 1014.63 1013.93 1013.67 1013.77 1013.35 1013.40 1012.90 1012.01 1011.27 1011.41 1011.65 1011.40 1011.26 1011.87 1010.88 1009.79 1008.89 1007.54 1007.29 1006.93 1006.09 1005.35
1020.97 1020.61 1020.26 1020.05 1019.69 1019.29 1018.95 1018.28 1017.99 1017.70 1017.50 1017.58 1017.70 1017.82 1017.20 1016.07 1015.79 1015.50 1015.53 1015.64 1015.37 1015.03 1014.64 1014.37 1013.24 1013.54 1013.70 1013.88 1014.66 1015.01 1014.82 1014.11 1013.18 1012.28 1011.91 1011.77 1012.08 1012.25 1012.33 1012.09 1010.50 1008.88 1008.19 1008.06 1007.26 1006.00 1005.16
1020.23 1019.89 1019.62 1019.34 1018.90 1018.34 1018.19 1017.49 1016.98 1016.64 1016.39 1016.20 1016.21 1016.35 1016.06 1015.51 1013.66 1013.61 1014.14 1014.09 1014.34 1014.55 1014.51 1013.57 1012.96 1012.60 1013.26 1014.26 1015.33 1016.50 1017.28 1016.47 1015.39 1013.97 1012.56 1012.60 1012.49 1012.68 1012.57 1012.01 1010.75 1008.57 1008.29 1007.76 1007.13 1006.88 1005.80
1019.34 1019.05 1018.90 1018.34 1018.07 1017.51 1017.34 1016.53 1016.13 1015.66 1015.48 1015.15 1014.61 1014.76 1014.36 1011.85 1012.14 1012.36 1012.24 1012.28 1012.88 1013.24 1013.41 1013.24 1012.87 1012.99 1013.07 1014.19 1015.74 1016.99 1017.35 1017.23 1016.58 1015.17 1013.81 1013.32 1013.32 1013.38 1012.85 1011.95 1009.88 1007.85 1007.35 1007.07 1007.38 1007.82 1006.14
1018.56 1018.17 1018.06 1017.41 1016.96 1016.56 1016.06 1015.71 1015.35 1014.85 1014.22 1013.98 1012.88 1012.83 1012.71 1010.75 1010.19 1010.66 1010.40 1010.51 1010.86 1011.31 1011.97 1012.04 1012.96 1012.83 1013.63 1014.21 1015.23 1016.26 1016.81 1016.19 1015.64 1014.72 1013.61 1012.78 1013.14 1013.26 1012.89 1011.95 1009.90 1007.29 1006.95 1006.70 1006.26 1005.91 1005.95
1017.60 1017.29 1017.04 1016.41 1016.02 1015.62 1015.24 1014.73 1014.38 1013.67 1013.10 1012.76 1011.69 1010.69 1010.81 1010.30 1009.37 1009.11 1008.53 1008.32 1008.90 1008.50 1009.32 1010.55 1010.68 1011.17 1011.62 1012.63 1013.80 1014.74 1015.98 1015.89 1015.13 1014.29 1013.25 1013.07 1011.77 1011.44 1010.92 1009.42 1007.96 1007.17 1006.57 1006.19 1006.22 1006.24 1006.05
Wind_Speed
17 18 17 17 17 18 18 18 18 18 20 21 18 17 19 21 20 22 23 22 23 22 23 18 15 15 5 5 12 8 17 11 2 2 3 5 4 4 5 4 4 4 4 6 6 3 4
17 17 18 18 17 17 17 17 18 17 17 18 20 21 22 20 21 21 22 23 23 23 24 25 18 13 1 13 6 7 8 12 4 1 2 5 6 6 5 4 6 5 5 4 4 4 4
14 15 14 14 15 16 16 16 17 18 18 17 17 18 19 20 20 22 23 24 23 24 24 25 23 8 11 19 6 14 17 5 6 6 4 5 4 5 3 3 6 2 3 3 6 5 6
17 18 19 19 19 19 21 21 21 20 20 18 18 18 19 20 21 22 22 25 25 25 23 24 23 8 14 3 8 12 8 15 7 7 6 6 5 5 4 2 3 3 1 2 3 9 4
17 17 19 20 21 20 19 21 21 22 21 22 20 20 20 19 19 21 22 24 25 31 27 22 6 2 19 5 4 10 12 11 4 5 6 3 4 6 3 5 2 2 3 5 8 11 5
16 17 16 18 19 21 23 23 22 23 23 23 23 22 22 22 21 21 23 23 27 25 8 4 2 4 2 10 5 3 2 9 6 4 3 5 2 5 3 7 11 5 4 6 7 5 3
17 20 20 21 21 22 22 22 24 25 25 24 23 22 21 22 22 21 13 7 8 7 10 10 19 17 6 5 4 1 2 4 4 3 9 4 6 18 16 17 6 7 5 7 4 5 5
19 19 21 21 23 23 23 23 23 25 25 23 22 21 21 22 19 19 4 3 4 4 18 14 20 26 25 21 21 9 4 5 7 17 8 6 24 11 8 7 12 6 7 7 5 3 5
18 21 23 22 22 22 22 24 23 24 24 21 20 21 22 22 17 5 2 2 4 9 9 12 16 20 14 19 26 22 10 7 9 16 22 26 4 15 14 10 16 18 19 5 3 2 3
20 22 24 24 21 22 22 22 23 22 24 21 21 22 19 20 8 2 1 3 2 1 4 10 6 8 7 7 17 18 23 14 11 17 18 21 24 14 12 20 17 19 8 6 4 1 5
20 22 23 25 24 21 23 22 22 22 22 21 20 20 21 13 2 3 4 1 1 4 5 11 6 8 21 10 5 7 23 22 29 12 13 11 14 16 14 14 15 7 9 14 7 4 2
20 20 22 24 24 21 24 20 22 22 21 21 20 19 18 5 1 2 5 4 5 9 9 9 3 10 16 20 24 8 5 11 15 15 14 16 3 19 13 6 16 9 9 7 5 4 5
19 20 23 25 24 24 24 23 21 21 21 20 21 17 12 4 3 5 1 4 6 6 7 9 5 14 17 27 24 16 13 20 17 21 22 15 10 5 6 8 10 6 12 2 1 2 11
22 21 22 24 25 23 24 23 20 20 22 19 19 19 5 4 6 8 3 1 5 9 9 9 13 17 19 16 13 18 12 16 25 19 5 16 12 17 6 10 9 12 16 9 9 6 3
20 20 22 24 23 23 23 24 20 21 19 20 16 3 3 4 8 5 3 5 7 9 4 5 16 14 16 2 9 13 16 17 14 28 7 16 16 1 9 5 16 9 16 8 8 2 3
20 22 22 25 25 23 22 23 20 21 20 18 1 4 5 3 8 3 4 13 6 4 4 3 12 6 22 19 12 7 10 9 14 22 20 4 3 7 10 4 5 17 13 8 1 6 5
20 20 24 24 25 22 22 23 20 19 20 18 0 4 3 3 4 2 4 8 7 7 6 5 8 13 19 19 17 18 11 24 11 11 20 4 4 1 8 13 20 6 15 6 6 4 9
20 20 24 24 25 22 23 22 23 21 19 4 1 2 3 2 3 1 3 7 4 10 6 10 7 12 16 20 21 18 22 10 6 4 18 19 3 6 14 7 1 7 10 10 11 9 3
21 19 23 24 24 24 23 22 22 21 15 1 3 3 2 2 3 3 5 5 3 7 14 5 7 6 11 17 13 11 17 6 8 7 2 13 9 10 4 3 3 16 12 23 0 4 9
20 18 22 23 24 24 23 23 22 20 16 1 3 2 2 2 3 5 2 7 5 5 13 9 14 14 19 20 18 12 9 3 8 2 11 7 7 4 14 16 7 2 13 18 11 5 12
20 23 21 23 24 24 24 22 20 21 17 2 3 4 4 2 5 6 5 4 6 8 7 4 7 11 12 13 17 7 6 3 4 6 4 4 6 5 6 7 5 6 7 8 18 18 8
21 22 20 22 23 24 25 23 21 21 18 2 2 2 2 4 3 6 10 11 15 21 7 7 10 16 10 12 14 9 6 2 2 1 1 2 1 7 6 12 5 3 5 8 11 17 11
22 23 22 23 24 24 24 24 21 20 15 3 3 3 6 12 4 5 7 12 17 12 12 18 16 14 13 14 15 6 6 7 4 2 2 3 4 2 2 6 6 4 4 3 8 8 16
22 22 23 22 24 25 25 25 21 22 18 5 2 3 4 4 7 9 12 12 16 17 19 16 10 6 5 2 7 3 3 6 6 6 3 1 2 3 1 4 1 2 3 8 9 9 7
22 22 23 22 24 26 24 25 24 24 22 9 5 4 4 6 8 15 14 13 15 14 17 16 18 10 3 2 2 5 7 7 5 6 2 3 1 2 5 3 6 3 4 5 2 6 5
22 22 23 24 25 26 25 28 24 25 24 13 9 8 8 10 12 13 10 14 13 10 5 15 10 4 4 2 3 4 4 5 5 5 2 3 1 3 3 6 5 4 8 6 6 5 7
23 23 24 24 27 27 26 28 25 26 28 15 9 11 8 10 15 11 11 10 6 8 6 2 3 1 6 4 3 4 6 5 3 5 4 3 0 4 2 2 6 5 7 4 5 3 8
25 24 23 24 25 27 28 26 29 29 29 18 12 10 9 8 14 8 14 14 4 12 9 4 4 3 2 5 5 5 3 6 2 5 6 6 6 5 2 4 7 5 5 6 4 7 4
25 23 25 25 27 27 27 27 29 29 29 25 15 9 10 10 6 8 21 20 19 28 12 8 6 5 5 3 3 3 2 2 2 3 2 3 7 5 7 7 2 5 2 3 1 4 5
Wind_Direction
25 25 22 20 17 12 8 5 5 8 3 354 358 353 347 344 340 339 336 333 333 334 338 304 310 323 13 352 256 340 13 342 26 102 207 171 199 162 207 216 144 235 235 180 231 261 248
19 19 15 11 8 4 360 358 353 355 355 355 350 349 349 345 342 336 332 333 330 329 333 330 301 309 265 271 270 308 350 338 335 213 231 181 202 204 241 227 192 221 219 238 223 202 222
9 8 6 0 354 353 350 344 343 341 344 342 338 339 340 335 339 338 332 327 327 327 318 315 315 288 240 248 264 297 304 249 298 300 249 219 216 178 166 258 229 210 254 306 229 203 229
9 8 4 2 357 352 349 344 340 337 333 331 329 329 330 329 332 331 330 325 320 310 307 299 299 292 266 206 246 257 281 284 256 251 248 251 198 196 193 252 0 203 192 211 268 159 240
1 359 355 352 348 344 346 340 339 338 331 328 328 324 326 327 328 329 326 321 317 298 292 283 287 221 276 350 253 250 221 243 291 212 244 268 155 191 133 137 326 284 221 219 305 196 143
354 355 349 349 347 343 338 336 332 329 329 336 333 327 326 324 325 329 325 328 304 301 309 221 179 295 207 260 249 230 216 203 214 171 226 199 180 177 170 160 212 195 220 236 222 216 170
353 353 344 346 341 338 337 336 335 331 332 324 329 329 320 320 325 329 339 345 9 343 28 318 295 279 310 260 270 219 157 126 257 248 185 208 187 208 187 195 177 183 197 210 231 233 165
351 349 346 344 341 341 334 338 338 332 331 334 324 321 318 317 318 316 46 46 16 310 296 246 269 277 264 282 279 274 111 167 194 219 181 190 229 207 176 192 202 181 193 228 286 168 176
351 355 345 345 341 340 337 338 336 328 325 328 316 315 319 310 309 352 89 347 41 348 293 278 238 245 237 213 242 244 194 201 218 223 213 220 192 178 185 187 201 219 218 165 224 134 226
351 348 343 343 337 338 334 331 326 326 322 325 323 319 310 318 325 164 13 63 19 313 329 287 257 271 220 220 264 219 227 214 218 223 220 237 232 194 197 212 188 218 156 151 157 83 240
350 341 342 338 332 335 330 326 322 319 324 324 321 317 320 289 167 276 144 135 20 69 357 284 319 327 324 188 319 224 217 202 224 204 187 215 173 186 216 219 184 207 150 186 170 175 28
340 342 344 335 330 330 322 318 320 327 323 326 320 314 319 337 142 179 144 62 56 49 255 285 295 3 351 323 306 298 200 225 214 221 225 222 271 196 204 147 185 136 94 60 62 102 266
334 347 339 337 327 333 327 331 325 325 325 321 321 312 312 152 225 121 89 63 40 134 289 271 284 326 323 307 313 246 246 209 215 201 222 202 218 285 145 118 159 168 150 69 51 195 237
335 339 340 337 334 336 330 329 324 325 322 326 325 318 254 189 158 127 97 109 179 228 235 298 312 317 306 330 328 349 238 219 220 230 206 214 203 196 202 194 176 182 179 163 180 197 197
334 342 336 329 334 329 330 328 328 326 321 327 332 330 308 248 158 118 153 235 200 210 264 311 323 301 298 344 314 305 265 240 229 215 212 199 226 80 191 160 149 188 206 166 101 10 79
332 338 339 330 334 330 323 325 333 325 326 331 339 321 280 324 142 137 209 249 235 226 328 308 282 241 292 313 298 336 336 270 233 223 199 271 201 198 188 123 220 183 163 169 312 149 234
328 333 335 335 330 334 322 318 322 322 325 332 239 304 263 124 131 185 232 229 234 241 222 205 262 274 281 301 295 302 264 288 287 217 206 216 200 322 140 207 189 143 187 195 123 168 184
320 339 326 335 334 333 324 325 322 318 324 41 285 294 291 90 131 293 192 199 236 278 232 256 258 262 266 279 280 277 267 270 304 280 212 209 276 145 206 202 270 192 187 185 192 220 230
322 329 325 330 334 331 327 320 327 310 314 128 230 234 312 113 213 249 306 297 246 262 266 251 260 257 294 283 291 263 292 236 277 23 11 194 208 188 3 300 251 202 208 200 144 106 206
318 323 320 325 328 328 325 321 322 316 306 279 256 306 292 220 158 147 149 260 243 255 262 251 256 270 282 269 258 263 273 269 300 71 9 346 233 261 199 211 139 209 206 204 205 178 206
326 318 318 318 327 323 329 317 317 316 305 300 224 230 186 253 266 221 202 224 238 275 238 165 286 242 273 298 314 208 216 237 248 344 39 345 14 21 298 328 194 178 194 196 216 230 183
315 312 320 319 320 322 322 317 316 311 309 220 273 153 242 246 181 187 225 247 260 265 225 262 249 279 278 278 289 312 304 228 287 84 320 313 23 356 33 1 3 273 343 219 216 232 252
315 318 321 318 322 321 318 317 308 307 306 228 230 220 201 247 194 182 207 236 253 256 252 242 254 273 274 291 288 234 291 305 262 164 201 228 146 81 43 328 329 220 248 271 269 228 222
312 317 321 320 318 318 317 315 308 300 294 250 210 260 257 246 221 223 250 235 241 244 246 265 252 227 244 346 297 272 285 274 287 284 169 204 294 106 103 345 224 306 269 224 241 276 281
309 316 318 320 315 315 312 309 299 300 300 283 267 227 248 262 235 248 233 246 256 245 243 254 260 236 184 85 288 360 334 3 312 269 222 187 197 108 119 153 294 122 22 33 6 292 230
309 312 319 319 313 315 318 309 301 301 302 295 263 244 239 264 230 236 242 226 228 236 286 248 257 199 176 165 124 172 221 224 302 304 285 188 351 110 122 146 189 181 155 224 140 281 327
303 312 314 318 312 322 314 308 299 305 300 292 275 253 252 224 250 232 223 223 179 188 228 262 212 180 186 184 170 164 240 171 199 185 185 137 49 169 264 147 279 240 176 153 89 290 327
304 308 308 308 316 317 318 312 308 302 304 306 284 260 245 251 262 211 222 213 192 201 213 213 70 310 142 194 183 204 161 232 113 190 183 170 154 180 131 78 276 201 112 164 188 193 133
304 306 307 314 314 316 315 310 308 305 306 305 288 250 233 245 244 207 231 218 206 231 218 186 197 155 189 157 202 114 151 64 164 261 9 231 193 185 185 212 171 204 295 321 150 177 296